Terug naar catalogus

STARLINK-2188

ActiefCommunicatieVLEO
NORAD 48563·PAYLOAD·🇺🇸 United States

Gelanceerd May 15, 2021 vanaf Cape Canaveral Space Force Station

Loading…

Volgende Passages (komende 24 uur)

TLE

VersSource: CelesTrak SupGP

Epoch: Sep 14, 2026, 20:56 UTC

1 48563C 21041L   26257.87270833 -.00027641  00000+0 -88882-3 0  2579
2 48563  53.1603 326.3187 0001329  71.3723 347.5692 15.31717481    19

Volg STARLINK-2188 in realtime met AllMySat

Download on the App Store